GFSNE_con_mucape_096.txt.gz
CAPE
1020 910 1209 970 1121 1199 927 999 1189 1216 1280 1220 1842 1925 2794 2194 1680 1725 1462 1612 1643 1373 1342 1202 1228 976 1070 1027 917 1224 1326 1472 1687 1825 1519 1219 626 0
984 1073 1177 1166 1172 1242 1132 972 826 884 1263 787 1487 1714 1844 1355 1273 1471 1451 1147 1308 1348 1312 1318 1091 546 652 795 755 736 974 1106 1196 1517 1693 1429 1033 36
972 985 1080 983 870 874 1003 1316 939 1041 1167 1421 1019 1452 1470 1570 1629 1512 1242 1853 1411 1066 965 983 884 335 772 747 817 531 486 777 967 981 1428 1529 1234 524
884 825 722 908 991 781 957 1309 1162 1061 1081 1264 969 1085 1268 1272 1159 1303 1431 1300 1325 1173 1040 941 382 371 399 599 505 739 645 833 865 932 1069 1457 1341 790
878 902 906 849 1035 965 1088 1064 906 1005 1164 1202 1222 984 1000 921 1140 1300 1303 1414 897 737 345 127 408 498 514 516 537 396 328 375 726 1046 625 1254 1335 1044
929 944 987 927 924 1076 978 1064 1121 1191 1303 1384 1347 1356 1067 1067 948 965 1121 1117 1061 1050 665 271 707 596 649 479 439 376 290 287 291 845 518 992 1240 1129
1111 1243 1197 1190 1177 1196 1432 1655 1217 1239 1208 1143 1284 1348 1205 1215 1251 1192 1069 946 1007 791 871 1017 977 1060 1035 667 432 263 141 134 147 654 424 682 1023 1088
1562 1469 1296 1393 1360 1198 1212 1203 1239 1590 1670 1173 1563 1390 1551 1090 960 1017 1129 1212 1149 875 1174 1123 894 1284 1118 975 282 127 84 46 113 467 291 481 825 921
1160 1081 1015 1058 1040 1083 1036 1122 1195 1270 1266 1648 1468 1560 1389 1322 1247 1241 1260 1097 935 1042 908 1325 1267 1365 910 499 365 239 76 69 79 146 190 249 679 634
690 729 725 778 774 828 933 1038 1079 1089 1034 940 888 939 1155 1138 872 1030 942 731 717 845 718 983 1204 1149 981 564 501 138 40 138 246 132 110 110 514 423
669 637 546 540 600 814 699 875 954 988 1057 1035 984 964 922 882 888 837 742 680 883 1089 802 820 1007 781 628 543 548 364 158 240 299 161 139 162 198 280
260 254 286 325 333 395 455 446 480 464 582 675 670 650 762 895 973 919 891 837 836 898 935 760 852 575 826 764 538 556 563 575 540 431 142 101 160 274
89 79 88 132 193 240 222 229 168 188 224 260 268 306 379 472 470 563 574 607 670 789 811 651 691 570 514 602 636 725 574 570 615 538 422 241 100 258
118 86 89 89 119 124 153 123 81 67 94 70 57 61 138 202 267 357 717 667 516 740 921 765 658 689 724 820 856 973 897 723 652 402 262 206 122 190
4 0 5 56 58 69 78 91 40 11 21 15 0 0 7 28 229 432 417 514 684 682 702 682 665 826 740 811 854 962 656 661 732 295 167 138 113 154
0 0 0 0 0 0 7 16 18 30 15 0 0 0 18 21 44 404 315 603 397 480 737 711 988 854 705 741 675 785 782 711 754 556 262 184 104 137
0 0 0 0 0 0 0 0 0 1 2 12 3 10 7 6 8 54 230 163 248 367 477 496 850 848 674 603 408 729 831 841 826 761 476 359 385 109
0 0 0 0 0 0 0 0 1 1 5 11 7 19 35 8 2 2 11 40 74 130 263 293 618 840 731 560 178 608 733 722 758 928 713 485 755 959
0 0 0 0 0 0 10 16 13 4 1 0 41 26 5 3 1 4 7 5 0 1 6 55 247 125 31 13 82 5 321 401 729 1214 1160 961 803 1127
0 0 0 0 0 0 0 0 0 0 0 0 25 23 32 6 5 0 0 0 1 4 0 0 7 0 3 4 21 34 1 51 746 975 1187 1427 1183 571
0 0 0 0 0 0 0 0 0 0 0 0 3 11 3 13 6 0 0 0 0 0 0 0 0 0 0 29 0 4 70 32 86 503 786 1231 1285 745
0 0 0 0 0 0 0 0 0 0 0 0 0 0 0 0 0 0 0 0 0 0 0 0 0 17 0 0 0 0 17 233 232 55 21 138 468 88
0 0 0 0 0 0 0 0 0 0 0 0 0 0 0 0 0 0 0 0 0 0 0 0 0 25 24 29 9 14 20 118 196 154 52 58 86 159

GFSNE_con_mucape_102.txt.gz
CAPE
1644 1842 1817 1290 1440 1499 1557 1477 1612 1353 1248 2229 1545 1740 1852 1484 1433 1562 1591 1374 1271 1658 1528 1228 1075 952 622 749 789 915 903 896 950 976 1122 1451 1471 970
1521 1789 2040 1288 1519 1346 1399 1319 1347 1309 1199 1017 1092 1682 2165 2091 1370 1611 1441 1261 1695 1729 884 837 562 261 438 445 394 525 746 569 657 711 833 1076 1428 1249
1693 1866 2089 2539 1596 1127 1038 1130 1213 1205 1123 678 901 935 2208 2314 2338 2503 1660 1136 743 856 942 837 137 104 520 554 485 331 330 373 458 561 702 731 1205 1274
1278 1415 1678 1368 2197 2112 1543 1676 1836 1826 1477 1915 2177 1453 1590 2012 2172 2720 1973 1232 1419 731 528 690 260 164 710 791 782 435 295 253 173 167 494 753 851 1189
1163 1261 1282 1376 1667 1422 1907 1665 1131 1530 1954 1688 1386 1060 1313 1497 1815 2342 1934 1807 982 274 249 271 462 626 926 947 1040 691 256 105 115 83 120 635 501 1010
1506 1300 1401 1419 1607 1832 1621 1901 1806 1947 1696 1512 1158 970 974 1328 1538 1062 776 727 794 687 629 632 688 695 991 1071 1026 787 185 68 44 23 31 379 303 798
1687 1594 1495 1348 1012 1243 1978 2148 1925 1919 1317 1214 1030 947 824 1904 1761 1095 834 782 1318 922 738 1167 915 929 1024 850 943 674 513 213 0 0 23 101 286 495
1666 1811 1552 1241 1417 1447 1332 1100 929 2122 2140 2080 1483 1454 2152 2194 1427 1169 1470 1381 1508 1229 1980 1434 1198 1148 1224 1160 871 849 545 0 59 75 18 74 179 103
1674 1840 1591 686 694 782 791 831 1244 1370 1264 2138 2182 2183 2337 2799 2611 2594 3008 2316 2242 1899 2120 1579 1334 1310 1149 1061 1125 1013 552 35 47 174 361 33 0 10
528 529 410 429 243 182 352 962 1413 1647 1690 1602 2013 2040 2163 1603 1434 2134 2093 2265 2285 2058 2664 1566 1319 1384 1265 1281 1160 1073 637 269 381 472 483 485 373 2
194 144 63 22 0 0 0 7 46 202 111 104 166 165 141 172 226 537 1096 2413 1796 1826 1864 2052 2149 1952 1605 1167 1185 1103 1024 1015 1057 934 802 534 453 400
61 38 13 4 0 0 0 0 0 0 33 24 14 18 0 0 0 413 1257 1496 1854 1567 2049 1884 2767 2067 1652 1507 1435 1525 1549 1032 1112 1035 1105 1034 915 611
34 18 2 0 0 0 0 0 0 0 7 21 9 3 0 7 31 169 355 345 298 323 860 1436 2175 1781 2391 1566 1544 1524 1583 1621 1604 1429 1256 1174 1214 898
7 0 0 1 0 0 0 0 0 0 5 0 0 0 0 0 0 0 29 111 429 859 1180 1536 1568 2567 2249 1552 1382 1502 1426 1340 1250 1340 1519 1316 1116 1000
0 0 0 0 0 0 0 0 0 0 0 0 0 0 0 0 5 16 0 3 5 91 298 1189 1058 1374 1833 1729 1813 1218 1485 1366 1462 1350 1288 1460 2091 1420
0 0 0 0 0 0 0 0 0 0 0 0 0 0 0 0 0 0 0 0 0 0 1 11 4 7 6 369 855 870 1442 1474 1293 1199 1106 1086 1549 1901
0 0 0 0 0 0 0 0 0 0 0 0 0 0 0 0 0 0 0 0 0 0 0 0 11 14 3 282 15 54 170 456 582 553 814 545 488 628
0 0 0 0 0 0 0 0 0 0 0 0 0 0 0 0 0 0 0 0 0 0 0 0 0 0 0 0 0 12 11 5 7 53 31 1 29 374
0 0 0 0 0 0 0 0 0 0 0 0 0 0 0 0 0 0 0 0 0 0 0 0 0 0 0 0 0 0 0 0 0 0 0 13 18 527
0 0 0 0 0 0 0 0 0 0 0 0 0 0 0 0 0 0 0 0 0 0 0 0 0 0 1 0 0 0 0 0 0 0 0 0 0 0
0 0 0 0 0 0 0 0 0 0 0 0 0 0 0 0 0 0 0 0 0 0 0 0 0 0 0 0 0 0 0 0 0 0 0 0 0 0
0 0 0 0 0 0 0 0 0 0 0 0 0 0 0 0 0 0 0 0 0 0 0 0 0 0 0 0 0 0 0 0 0 0 0 0 0 0
0 0 0 0 0 0 0 0 0 0 0 0 0 0 0 0 0 0 0 0 0 0 0 0 0 0 0 0 0 0 0 0 0 0 0 0 0 0

GFSNE_con_mucape_105.txt.gz
CAPE
2427 1905 2026 1327 806 1034 1059 1078 1149 971 939 3048 1625 2730 1865 1768 1649 1704 2255 1095 782 929 1516 861 863 302 369 529 666 742 861 998 818 676 701 782 1091 1329
1050 2054 2057 1325 1920 1088 917 875 874 942 937 793 784 1415 2514 2038 1449 2265 1928 1227 992 1330 1418 692 555 152 292 473 516 456 306 309 491 519 468 624 708 1152
1707 1667 1455 2207 1670 1327 1404 1068 677 705 874 1017 847 1239 3369 3012 2019 2408 1524 2606 966 1076 789 574 506 56 103 457 647 743 448 263 188 176 200 407 715 750
1465 1545 1533 1086 1933 2859 1715 3361 1789 2270 951 2851 1810 1483 2690 1739 1593 3441 1532 1071 1277 892 553 274 408 257 354 563 843 863 730 341 97 111 77 78 475 499
1134 1372 1453 1530 1865 1782 2083 1833 1188 1839 2114 1670 1052 752 1212 1473 1979 3008 3259 2902 889 434 168 261 410 403 484 561 900 955 595 78 24 15 13 15 178 447
1475 1862 1849 1520 1705 1946 1878 2437 2359 2177 1656 1593 1334 1387 1596 2259 3063 1167 1152 762 893 638 529 425 520 530 472 525 845 947 658 532 373 33 0 0 11 354
1421 1479 1585 1176 1010 1056 1347 2475 2492 2138 1371 1317 1096 893 1113 1759 1422 1031 1365 1203 1810 1716 1150 1189 1111 929 1049 517 961 1018 774 676 117 0 0 0 0 131
2073 1564 1237 1619 1480 1304 1250 1105 1208 2321 2270 1860 1533 1358 3015 2001 1745 1822 2121 1649 1669 1831 2674 2040 1925 895 877 1028 952 949 968 791 203 216 196 80 1 50
1861 1854 2011 802 1054 1211 1060 820 855 884 964 1852 2370 2698 2586 2892 2502 2994 2727 2588 2014 1966 2406 2099 2396 2326 2008 1056 1035 1010 1059 716 566 399 347 436 453 265
1544 1273 1105 536 320 185 76 775 965 1359 1610 1305 1804 1161 1099 611 420 994 1907 2181 2259 2109 2502 1700 2229 1993 2009 2087 1292 1025 1142 966 943 1006 954 895 818 594
281 253 190 156 87 39 23 65 91 107 3 3 0 3 0 0 1 11 442 1992 2178 1326 1721 1800 1651 1862 2128 1899 1402 1123 973 1082 932 1061 1034 1206 1152 1115
67 74 58 42 14 2 0 0 0 0 0 0 9 0 9 25 1 49 612 508 547 592 1292 644 1086 2610 904 1235 1935 2184 1466 1126 1069 1032 1089 1006 1162 1247
25 24 21 1 1 0 0 0 0 0 0 0 0 0 33 91 129 85 583 71 15 65 172 751 998 1460 1433 1266 1058 1586 1775 1440 1395 1194 1076 963 949 1148
39 11 4 1 1 0 0 0 0 0 0 0 0 0 0 0 0 0 299 21 1 298 128 1224 969 1275 1221 685 582 979 1246 1526 1537 1494 1998 1009 821 911
0 0 0 0 0 0 0 0 0 0 0 0 0 0 0 0 20 9 1 2 4 22 1 226 7 11 5 14 73 216 269 510 900 1173 1293 1444 1533 1685
0 0 0 0 0 0 0 0 0 0 0 0 0 0 0 0 0 0 0 0 0 0 0 17 14 0 0 0 0 0 0 27 60 220 898 882 835 824
0 0 0 0 0 0 0 0 0 0 0 0 0 0 0 0 0 0 0 0 0 0 0 0 0 0 0 0 0 0 0 3 9 7 0 0 0 0
0 0 0 0 0 0 0 0 0 0 0 0 0 0 0 0 0 0 0 0 0 0 0 0 0 0 0 0 0 0 0 0 0 0 0 0 0 0
0 0 0 0 0 0 0 0 0 0 0 0 0 0 0 0 0 0 0 0 0 0 0 0 0 0 0 0 0 0 0 0 0 0 0 0 3 0
0 0 0 0 0 0 0 0 0 0 0 0 0 0 0 0 0 0 0 0 0 0 0 0 0 0 0 0 0 0 0 0 0 0 0 0 0 0
0 0 0 0 0 0 0 0 0 0 0 0 0 0 0 0 0 0 0 0 0 0 0 0 0 0 0 4 0 0 0 0 0 0 0 0 0 0
0 0 0 0 0 0 0 0 0 0 0 0 0 0 0 0 0 0 0 0 0 0 0 0 0 0 0 0 0 0 0 0 0 0 0 0 0 0
0 0 0 0 0 0 0 0 0 0 0 0 0 0 0 0 0 0 0 0 0 0 0 0 0 0 0 0 0 0 0 0 0 0 0 0 0 0

GFSNE_con_mucape_111.txt.gz
CAPE
1116 1236 1666 1437 1071 1439 1305 1196 1074 571 544 539 652 710 667 747 926 1094 995 1503 1063 1092 1341 695 639 526 408 580 617 465 374 484 620 840 816 673 663 688
1335 961 1203 1043 1022 1280 1224 1518 1076 722 490 1003 686 903 1041 1121 1183 1098 1096 1643 1229 1235 1110 482 578 604 612 495 601 780 687 636 447 194 291 349 276 393
1215 1142 1000 1255 1302 990 1530 1500 1156 1502 919 682 905 882 681 958 1137 1887 1606 1884 1195 1075 741 886 494 529 540 466 517 556 855 783 477 93 49 90 104 153
862 947 988 1147 967 987 1097 1384 1088 1264 914 679 926 980 921 780 617 678 1593 1688 1326 1394 1581 1945 981 851 1205 1581 1268 601 772 850 783 389 100 48 45 50
978 1045 841 708 959 616 952 1075 682 898 717 978 1062 920 898 1141 1129 1352 1494 1581 1472 1354 1353 1665 1494 1627 1470 1439 1253 1032 807 895 754 268 31 0 0 7
1313 1136 758 561 1075 732 913 931 1305 1113 1430 1108 1152 1094 1042 1446 1364 1461 1227 1379 1248 1213 1513 1149 1294 1308 1807 1552 732 817 867 948 828 626 378 138 56 19
710 775 819 899 760 548 521 585 664 908 902 1111 1066 1153 1097 1164 1275 1169 1167 1347 486 1275 972 1191 1084 1580 1577 1600 1286 992 937 1064 1078 1115 1014 1022 1167 842
864 713 562 633 754 862 802 678 561 789 840 780 942 902 999 1027 760 124 398 285 517 701 866 955 920 1185 1031 1129 1231 1014 897 953 1019 1010 1060 1114 1295 1366
777 648 550 400 334 355 266 302 482 582 562 482 492 464 334 26 0 0 171 278 450 443 407 736 588 593 470 929 1035 883 842 883 916 1042 1105 1009 846 1066
327 479 389 275 171 173 139 134 172 158 98 29 0 0 0 0 0 0 9 99 156 114 27 130 275 149 263 681 514 575 796 635 746 825 892 1051 1084 1053
209 187 156 169 95 36 14 1 0 0 0 0 0 0 0 0 25 14 0 0 1 0 0 0 115 0 283 280 181 142 125 200 330 320 666 850 805 954
61 72 82 53 38 25 6 0 0 0 0 0 0 0 3 0 0 6 0 0 0 0 0 0 6 1 0 0 0 0 0 0 0 0 344 581 336 234
8 7 12 22 26 28 24 13 1 0 0 0 0 0 0 0 0 0 0 0 0 0 0 0 0 0 0 0 0 0 0 0 0 0 0 0 53 64
19 16 10 15 16 11 5 2 0 0 0 0 0 0 0 0 0 0 0 0 0 0 0 0 0 0 0 0 0 0 0 0 0 0 0 0 0 0
9 9 0 0 0 0 0 0 0 0 0 0 0 0 0 0 0 0 0 0 0 0 0 0 0 0 0 0 0 0 0 0 0 0 0 0 0 0
0 0 0 0 0 0 0 0 0 0 0 0 0 0 0 0 0 0 0 0 0 0 0 0 0 0 0 0 0 0 0 0 0 0 0 0 0 0
0 0 0 0 0 0 0 0 0 0 0 0 0 0 0 0 0 0 0 0 0 0 0 0 0 0 0 0 0 0 0 0 0 0 0 0 0 0
0 0 0 0 0 0 0 0 0 0 0 0 0 0 0 0 0 0 0 0 0 0 0 0 0 0 0 0 0 0 0 0 0 0 0 0 0 0
0 0 0 0 0 0 0 0 0 0 0 0 0 0 0 0 0 0 0 0 0 0 0 0 0 0 0 0 0 0 0 0 0 0 0 0 0 0
0 0 0 0 0 0 0 0 0 0 0 0 0 0 0 0 0 0 0 0 0 0 0 0 0 0 0 0 0 0 0 0 0 0 0 0 0 0
0 0 0 0 0 0 0 0 0 0 0 0 0 0 0 0 0 0 0 0 0 0 0 0 0 0 0 0 0 0 0 0 0 0 0 0 0 0
0 0 0 0 0 0 0 0 0 0 0 0 0 0 0 0 0 0 0 0 0 0 0 0 0 0 0 0 0 0 0 0 0 0 0 0 0 0
0 0 0 0 0 0 0 0 0 0 0 0 0 0 0 0 0 0 0 0 0 0 0 0 0 0 0 0 0 0 0 0 0 0 0 0 0 0

GFSNE_con_mucape_114.txt.gz
CAPE
1075 1232 1195 912 725 931 746 614 528 256 399 603 540 649 778 797 831 1182 1096 1291 1388 1152 859 757 429 577 540 510 587 767 753 436 501 720 1011 937 1049 1188
1072 783 834 701 950 993 879 962 881 493 323 685 767 762 960 854 930 1413 1444 1538 1329 1360 1366 579 361 536 622 1033 842 584 854 814 424 177 143 339 338 302
931 886 678 932 1043 1323 1069 1070 1071 877 431 541 672 938 811 562 464 1403 1602 1474 1415 1235 1795 1459 1366 1481 1544 1498 1474 1352 737 854 764 336 25 9 87 95
544 756 764 895 881 705 799 957 768 690 563 513 744 851 930 972 1030 1166 1137 1330 1220 1255 1536 1173 1194 1548 1612 1230 846 1029 709 811 728 385 61 7 0 10
874 836 765 595 646 622 691 782 679 741 1016 954 785 687 1011 1177 1047 1038 925 950 888 1230 1055 1169 1665 1598 1539 1338 846 769 856 747 923 681 255 141 39 0
842 865 855 769 665 610 633 829 735 661 731 492 595 779 910 1019 1076 773 137 316 730 957 741 958 1458 1548 1351 1279 1038 944 1013 1017 1035 1043 1038 1182 1118 831
512 645 634 593 636 630 470 471 462 403 394 529 570 690 837 845 549 226 113 281 598 434 493 731 695 904 962 1113 1033 823 797 869 935 1031 947 1026 927 1219
411 421 521 602 459 618 614 463 487 717 759 697 700 571 393 249 22 3 260 357 545 152 164 233 302 441 744 848 872 860 932 843 635 799 907 1056 658 907
517 442 353 244 235 281 250 307 298 364 348 211 65 0 3 0 0 0 7 154 228 57 34 118 0 277 432 412 716 769 607 496 455 478 752 977 970 726
402 261 212 244 209 206 203 166 139 123 64 1 0 0 0 0 0 7 0 0 25 0 0 0 12 0 320 168 188 170 186 365 275 608 898 553 769 897
191 152 119 132 138 80 36 19 3 0 0 0 0 0 0 0 0 0 0 0 0 0 0 0 0 0 0 0 38 19 3 0 0 9 570 521 272 159
128 128 95 79 62 42 30 21 18 8 0 0 0 0 0 0 0 0 0 0 0 0 0 0 0 0 0 0 0 0 0 0 0 0 0 0 0 0
64 49 42 50 66 67 55 48 50 25 21 2 0 0 0 0 0 0 0 0 0 0 0 0 0 0 0 0 0 0 0 0 0 0 0 0 0 0
71 60 29 27 21 15 15 19 16 14 3 0 0 0 0 0 0 0 0 0 0 0 0 0 0 0 0 0 0 0 0 0 0 0 0 0 0 0
43 18 12 17 17 15 18 3 0 0 0 0 0 0 0 0 0 0 0 0 0 0 0 0 0 0 0 0 0 0 0 0 0 0 0 0 0 0
0 0 0 0 0 0 0 0 0 0 0 0 0 0 0 0 0 0 0 0 0 0 0 0 0 0 0 0 0 0 0 0 0 0 0 0 0 0
0 0 0 0 0 0 0 0 0 0 0 0 0 0 0 0 0 0 0 0 0 0 0 0 0 0 0 0 0 0 0 0 0 0 0 0 0 0
0 0 0 0 0 0 0 0 0 0 0 0 0 0 0 0 0 0 0 0 0 0 0 0 0 0 0 0 0 0 0 0 0 0 0 0 0 0
0 0 0 0 0 0 0 0 0 0 0 0 0 0 0 0 0 0 0 0 0 0 0 0 0 0 0 0 0 0 0 0 0 0 0 0 0 0
0 0 0 0 0 0 0 0 0 0 0 0 0 0 0 0 0 0 0 0 0 0 0 0 0 0 0 0 0 0 0 0 0 0 0 0 0 0
0 0 0 0 0 0 0 0 0 0 0 0 0 0 0 0 0 0 0 0 0 0 0 0 0 0 0 0 0 0 0 0 0 0 0 0 0 0
0 0 0 0 0 0 0 0 0 0 0 0 0 0 0 0 0 0 0 0 0 0 0 0 0 0 0 0 0 0 0 0 0 0 0 0 0 0
0 0 0 0 0 0 0 0 0 0 0 0 0 0 0 0 0 0 0 0 0 0 0 0 0 0 0 0 0 0 0 0 0 0 0 0 0 0